{"data":{"norad_id":67805,"epoch":"2026-05-25T02:31:04.073664Z","epoch_age_seconds":66260,"freshness":"FRESH","line1":"1 67805U 26032J   26145.10490826  .00015777  00000+0  48995-3 0  9991","line2":"2 67805  97.2854 333.2321 0001493  96.2799 263.8614 15.33447844 16672","mean_motion":15.33447844,"eccentricity":0.0001493,"inclination_deg":97.2854,"raan_deg":333.2321,"arg_perigee_deg":96.2799,"mean_anomaly_deg":263.8614,"bstar":0.00048995,"rev_number":1667,"period_min":93.906030494246,"perigee_km":464.51295256142,"apogee_km":466.55647293485,"semimajor_km":6843.6717127481,"source":"CELESTRAK","updated_at":"2026-05-25T13:38:21.693520Z"}}